Погода в Успенских Хутора

Россия / Калужская область     55°09′37″N   36°53′34″E
темп.,
°C
ветер,
м/с
пор.,
м/с
влажн.,
%
обл.,
%
осадки,
мм/ч
давл.,
гПа
погр.,
м
20 января, чт
чт2000:00−8юз41196100 0.1 1012322
03:00−6ююз41295100 0.1 1010403
06:00−5ююз41395100 0.1 1008464
09:00−4ююз51394100 0.2 1006537
12:00−3ююз51394100 0.1 1005662
15:00−3ю61492100 0.1 1004746
18:00−4ю61492100 0.1 1002669
21:00−4ю61495100 0.4 1001759
21 января, пт
пт2100:00−4ю51394100 0.9 1001705
03:00−4ю41196100 1.8 1001591
06:00−4ююв41095100 0.4 999532
09:00−5ююв41095100 0.7 999473
12:00−4ююв4996100 0.8 998482
15:00−4ююв3796100 1.8 997463
18:00−6ююв279898 0.2 998181
21:00−9ююв399674 0.2 999168
22 января, сб
сб2200:00−9юв3996100 0.0 999211
03:00−8вюв3995100 0.2 1000283
06:00−7вюв389692 0.6 1001288
09:00−5ююв279690 1.1 1003322
12:00−5ю2694100 0.1 1006387
15:00−4юв2595100 0.3 1009429
18:00−6вюв279786 0.1 1012205
21:00−9вюв379688 0.2 1015187
23 января, вс
вс2300:00−14в249986 0.1 101956
03:00−16всв249993 0.1 102160
06:00−17всв2310092 0.0 102344
09:00−18св24100100 0.1 102758
12:00−11св2395100 0.0 1029155
15:00−10св249484 0.1 1030213
18:00−16ссв239973 0.0 103340
21:00−16ссв2510098 0.0 103466
24 января, пн
пн2400:00−17св2610099 0.0 103582
03:00−18ссв25100100 0.0 103570
06:00−18ссв37100100 0.0 1035103
09:00−17св28100100 0.1 1036112
12:00−12св359596 0.0 1035174
15:00−9св249316 0.0 1033195
18:00−16ссв239967 0.0 103346
21:00−16св2410094 0.0 103254